TimeMST,TemperatureF,Dew PointF,Humidity,Sea Level PressureIn,VisibilityMPH,Wind Direction,Wind SpeedMPH,Gust SpeedMPH,PrecipitationIn,Events,Conditions,WindDirDegrees,DateUTC
12:53 AM,28.0,18.0,66,30.02,10.0,WNW,34.5,41.4,N/A,,Overcast,290,2014-01-14 07:53:00
1:53 AM,26.1,16.0,66,30.06,10.0,WNW,27.6,36.8,N/A,,Partly Cloudy,300,2014-01-14 08:53:00
2:53 AM,25.0,16.0,69,30.09,10.0,WNW,28.8,38.0,N/A,,Partly Cloudy,300,2014-01-14 09:53:00
3:53 AM,21.9,17.1,82,30.17,3.0,North,19.6,34.5,0.00,Snow,Light Snow,350,2014-01-14 10:53:00
4:41 AM,19.4,17.6,93,30.14,1.8,North,17.3,-,0.00,Snow,Light Snow,360,2014-01-14 11:41:00
4:53 AM,19.9,17.1,89,30.22,0.8,North,16.1,23.0,0.00,Snow,Light Snow,350,2014-01-14 11:53:00
5:05 AM,19.4,15.8,86,30.14,1.2,North,16.1,-,0.00,Snow,Light Snow,360,2014-01-14 12:05:00
5:18 AM,19.4,15.8,86,30.15,2.0,North,10.4,-,0.00,Snow,Light Snow,350,2014-01-14 12:18:00
5:26 AM,19.4,15.8,86,30.15,1.5,North,12.7,-,0.00,Snow,Light Snow,350,2014-01-14 12:26:00
5:49 AM,19.4,15.8,86,30.16,0.8,North,15.0,-,0.00,Snow,Light Snow,360,2014-01-14 12:49:00
5:53 AM,19.0,16.0,88,30.25,0.8,North,15.0,-,0.00,Snow,Light Snow,360,2014-01-14 12:53:00
6:13 AM,17.6,15.8,93,30.17,1.2,North,13.8,-,0.00,Snow,Light Snow,350,2014-01-14 13:13:00
6:24 AM,17.6,15.8,93,30.17,2.5,North,12.7,-,0.00,Snow,Light Snow,350,2014-01-14 13:24:00
6:36 AM,17.6,15.8,93,30.18,3.0,North,13.8,-,0.00,Snow,Light Snow,360,2014-01-14 13:36:00
6:43 AM,17.6,15.8,93,30.19,1.8,North,13.8,-,0.00,Snow,Light Snow,350,2014-01-14 13:43:00
6:53 AM,18.0,15.1,88,30.29,0.8,North,16.1,-,0.00,Snow,Light Snow,350,2014-01-14 13:53:00
7:19 AM,17.6,15.8,93,30.20,0.5,North,18.4,-,0.00,Fog-Snow,Snow,350,2014-01-14 14:19:00
7:36 AM,17.6,15.8,93,30.21,1.0,North,19.6,-,0.00,Snow,Light Snow,350,2014-01-14 14:36:00
7:53 AM,17.1,15.1,92,30.32,1.0,North,18.4,-,0.00,Snow,Light Snow,350,2014-01-14 14:53:00
8:53 AM,17.1,14.0,88,30.35,0.8,North,16.1,-,0.00,Snow,Light Snow,350,2014-01-14 15:53:00
9:05 AM,17.6,14.0,86,30.25,1.8,North,15.0,-,0.00,Snow,Light Snow,360,2014-01-14 16:05:00
9:35 AM,17.6,14.0,86,30.28,1.8,North,17.3,-,0.00,Snow,Light Snow,360,2014-01-14 16:35:00
9:51 AM,17.6,14.0,86,30.28,0.8,North,18.4,-,0.00,Snow,Light Snow,360,2014-01-14 16:51:00
9:53 AM,18.0,14.0,84,30.39,0.8,North,19.6,-,0.00,Snow,Light Snow,360,2014-01-14 16:53:00
10:03 AM,17.6,15.8,93,30.29,0.5,North,18.4,-,0.00,Fog-Snow,Light Snow,360,2014-01-14 17:03:00
10:12 AM,17.6,14.0,86,30.28,0.8,North,17.3,-,0.00,Snow,Light Snow,360,2014-01-14 17:12:00
10:20 AM,17.6,14.0,86,30.29,1.8,North,16.1,-,0.00,Snow,Light Snow,360,2014-01-14 17:20:00
10:40 AM,17.6,14.0,86,30.29,0.5,North,17.3,-,0.00,Fog-Snow,Light Snow,360,2014-01-14 17:40:00
10:46 AM,17.6,15.8,93,30.29,1.0,North,16.1,-,0.00,Snow,Light Snow,360,2014-01-14 17:46:00
10:53 AM,19.0,15.1,85,30.40,1.8,North,13.8,-,0.00,Snow,Light Snow,360,2014-01-14 17:53:00
11:01 AM,19.4,15.8,86,30.30,3.0,North,15.0,-,0.00,Snow,Light Snow,360,2014-01-14 18:01:00
11:53 AM,21.0,16.0,81,30.38,10.0,North,16.1,-,0.00,,Overcast,360,2014-01-14 18:53:00
12:53 PM,21.9,17.1,82,30.35,10.0,NNW,16.1,24.2,0.00,,Scattered Clouds,340,2014-01-14 19:53:00
1:53 PM,23.0,17.1,78,30.36,10.0,NW,15.0,-,N/A,,Mostly Cloudy,320,2014-01-14 20:53:00
2:53 PM,27.0,18.0,69,30.35,2.5,WNW,25.3,34.5,0.00,,Overcast,300,2014-01-14 21:53:00
3:01 PM,26.6,17.6,69,30.28,4.0,WNW,27.6,-,0.00,,Overcast,300,2014-01-14 22:01:00
3:13 PM,26.6,17.6,69,30.29,2.0,NW,25.3,36.8,0.00,,Overcast,310,2014-01-14 22:13:00
3:22 PM,28.4,17.6,64,30.29,5.0,NW,25.3,34.5,0.00,,Overcast,310,2014-01-14 22:22:00
3:53 PM,28.0,17.1,63,30.38,10.0,NW,25.3,34.5,0.00,,Overcast,310,2014-01-14 22:53:00
4:53 PM,28.0,17.1,63,30.38,10.0,NW,24.2,29.9,N/A,,Overcast,310,2014-01-14 23:53:00
5:53 PM,27.0,19.0,72,30.42,10.0,NNW,11.5,-,N/A,,Overcast,330,2014-01-15 00:53:00
6:53 PM,25.0,19.0,78,30.41,10.0,WNW,12.7,-,N/A,,Overcast,300,2014-01-15 01:53:00
7:53 PM,23.0,15.1,72,30.43,10.0,West,5.8,-,N/A,,Overcast,280,2014-01-15 02:53:00
8:53 PM,19.0,12.0,74,30.44,10.0,WSW,5.8,-,N/A,,Partly Cloudy,250,2014-01-15 03:53:00
9:53 PM,18.0,10.9,74,30.43,10.0,Calm,Calm,-,N/A,,Clear,0,2014-01-15 04:53:00
10:53 PM,21.0,12.9,71,30.40,10.0,WNW,3.5,-,N/A,,Clear,290,2014-01-15 05:53:00
11:53 PM,23.0,12.9,65,30.36,10.0,West,8.1,-,N/A,,Clear,280,2014-01-15 06:53:00